This demonstration page uses our WeatherBlox Daily Observations layout. Learn more.

36.17497, -115.13722

Hourly Observations for May 18, 2018

Temp ( °F °C ) Dew Point ( °F °C ) Humidity (%) Winds ( mph kmh ) Pressure ( in mb ) Visibility ( mi km ) Precip ( " mm )
12:53 am 00:53 Clear 76 24.4 19 -7.2 12 12 NW 12 19 29.68 1005 10 16.09344 0 0
1:53 am 01:53 Clear 73 22.8 23 -5 15 15 SSW 8 13 29.71 1006 10 16.09344 0 0
2:53 am 02:53 Clear 71 21.7 21 -6.1 15 15 N 8 13 29.71 1006 10 16.09344 0 0
3:53 am 03:53 Clear 72 22.2 22 -5.6 15 15 NNE 8 13 29.71 1006 10 16.09344 0 0
4:53 am 04:53 Clear 70 21.1 25 -3.9 18 18 NW 10 17 29.74 1007 10 16.09344 0 0
5:53 am 05:53 Sunny 69 20.6 27 -2.8 21 21 NW 9 15 29.74 1007 10 16.09344 0 0
6:53 am 06:53 Sunny 71 21.7 30 -1.1 22 22 NNW 10 17 29.77 1008 10 16.09344 0 0
7:53 am 07:53 Sunny 73 22.8 31 -0.6 21 21 Calm 29.8 1009 10 16.09344 0 0
8:53 am 08:53 Sunny 80 26.7 33 0.6 18 18 NNE 13 20 29.77 1008 10 16.09344 0 0
9:53 am 09:53 Sunny 81 27.2 33 0.6 18 18 NNE 8 13 29.8 1009 10 16.09344 0 0
10:53 am 10:53 Sunny 83 28.3 32 0 16 16 E 12 19 29.8 1009 10 16.09344 0 0
11:53 am 11:53 Sunny 83 28.3 32 0 16 16 N 6 9 29.77 1008 10 16.09344 0 0
12:53 pm 12:53 Sunny 85 29.4 31 -0.6 14 14 N 3 6 29.77 1008 10 16.09344 0 0
1:53 pm 13:53 Sunny 87 30.6 32 0 14 14 W 6 9 29.74 1007 10 16.09344 0 0
2:53 pm 14:53 Mostly Sunny 90 32.2 31 -0.6 12 12 WSW 13 20 29.71 1006 10 16.09344 0 0
3:53 pm 15:53 Mostly Sunny 90 32.2 28 -2.2 11 11 SW 14 22 29.71 1006 10 16.09344 0 0
4:53 pm 16:53 Sunny 89 31.7 28 -2.2 11 11 SSE 8 13 29.68 1005 10 16.09344 0 0
5:53 pm 17:53 Sunny 88 31.1 28 -2.2 11 11 Calm 29.68 1005 10 16.09344 0 0
6:53 pm 18:53 Sunny 88 31.1 27 -2.8 11 11 WSW 8 13 29.68 1005 10 16.09344 0 0
7:53 pm 19:53 Clear 87 30.6 26 -3.3 11 11 SW 7 11 29.68 1005 10 16.09344 0 0
8:53 pm 20:53 Clear 85 29.4 28 -2.2 13 13 W 9 15 29.71 1006 10 16.09344 0 0
9:53 pm 21:53 Clear 83 28.3 30 -1.1 15 15 W 9 15 29.71 1006 10 16.09344 0 0
10:53 pm 22:53 Clear 81 27.2 31 -0.6 16 16 N 5 7 29.71 1006 10 16.09344 0 0
11:53 pm 23:53 Clear 78 25.6 31 -0.6 18 18 N 3 6 29.71 1006 10 16.09344 0 0

Powered by AerisWeather